QPF
0.00 0.00 0.00 0.00 0.00 0.00 0.00 0.00 0.00 0.00 0.00 0.00 0.00 0.00 0.00 0.00 0.00 0.00 0.00 0.00 0.00 0.00 0.00 0.00 0.00 0.01 0.00 0.00 0.01 0.01 0.02 0.02 0.01 0.02 0.01 0.02 0.03 0.03 0.04 0.03 0.03 0.03 0.03 0.04
0.00 0.00 0.00 0.00 0.00 0.00 0.00 0.00 0.00 0.00 0.00 0.00 0.00 0.00 0.00 0.00 0.00 0.00 0.00 0.00 0.00 0.00 0.01 0.01 0.01 0.01 0.01 0.00 0.01 0.02 0.03 0.02 0.01 0.02 0.01 0.01 0.02 0.02 0.02 0.02 0.03 0.04 0.05 0.06
0.00 0.00 0.00 0.00 0.00 0.00 0.00 0.00 0.00 0.00 0.00 0.00 0.00 0.00 0.00 0.00 0.00 0.00 0.00 0.00 0.01 0.01 0.02 0.03 0.03 0.02 0.01 0.01 0.01 0.03 0.04 0.03 0.02 0.02 0.02 0.02 0.02 0.02 0.02 0.03 0.03 0.06 0.08 0.08
0.00 0.00 0.00 0.00 0.00 0.00 0.00 0.00 0.00 0.00 0.00 0.00 0.00 0.00 0.00 0.00 0.00 0.00 0.00 0.01 0.01 0.01 0.02 0.02 0.02 0.02 0.01 0.01 0.03 0.05 0.04 0.02 0.03 0.03 0.03 0.03 0.04 0.04 0.04 0.03 0.03 0.03 0.05 0.06
0.00 0.00 0.00 0.00 0.00 0.00 0.00 0.00 0.00 0.00 0.00 0.00 0.00 0.00 0.00 0.00 0.00 0.00 0.01 0.02 0.02 0.02 0.02 0.02 0.02 0.01 0.02 0.03 0.03 0.03 0.02 0.03 0.03 0.04 0.03 0.03 0.04 0.05 0.04 0.04 0.03 0.03 0.04 0.03
0.00 0.00 0.00 0.00 0.00 0.00 0.00 0.00 0.00 0.00 0.00 0.00 0.00 0.00 0.00 0.00 0.00 0.00 0.01 0.01 0.02 0.02 0.02 0.02 0.03 0.02 0.03 0.04 0.03 0.02 0.01 0.01 0.02 0.03 0.03 0.03 0.04 0.04 0.03 0.03 0.03 0.02 0.02 0.03
0.00 0.00 0.00 0.00 0.00 0.00 0.00 0.00 0.00 0.00 0.00 0.00 0.00 0.00 0.00 0.00 0.00 0.00 0.01 0.01 0.01 0.02 0.02 0.02 0.03 0.02 0.02 0.03 0.03 0.02 0.02 0.02 0.02 0.02 0.02 0.02 0.02 0.01 0.01 0.01 0.01 0.01 0.02 0.03
0.00 0.00 0.00 0.00 0.00 0.00 0.00 0.00 0.00 0.00 0.00 0.00 0.01 0.00 0.00 0.00 0.00 0.01 0.02 0.02 0.02 0.02 0.02 0.03 0.03 0.03 0.03 0.04 0.05 0.05 0.04 0.05 0.05 0.04 0.03 0.02 0.02 0.01 0.01 0.01 0.02 0.02 0.01 0.01
0.00 0.00 0.00 0.00 0.00 0.00 0.00 0.00 0.00 0.00 0.00 0.00 0.00 0.00 0.00 0.01 0.01 0.02 0.03 0.04 0.04 0.04 0.03 0.03 0.03 0.03 0.06 0.08 0.09 0.07 0.06 0.06 0.05 0.04 0.03 0.02 0.02 0.01 0.02 0.02 0.02 0.02 0.01 0.01
0.01 0.00 0.00 0.00 0.00 0.00 0.00 0.00 0.00 0.00 0.01 0.01 0.01 0.00 0.01 0.02 0.03 0.05 0.06 0.06 0.05 0.05 0.04 0.03 0.03 0.04 0.06 0.08 0.08 0.05 0.05 0.05 0.04 0.03 0.03 0.02 0.01 0.01 0.02 0.02 0.02 0.02 0.02 0.02
0.01 0.01 0.01 0.01 0.01 0.01 0.01 0.01 0.01 0.01 0.01 0.01 0.01 0.01 0.01 0.02 0.04 0.05 0.06 0.06 0.04 0.04 0.03 0.03 0.02 0.03 0.03 0.04 0.04 0.04 0.06 0.07 0.07 0.06 0.05 0.03 0.03 0.02 0.02 0.02 0.03 0.03 0.03 0.03
0.02 0.02 0.02 0.02 0.02 0.01 0.01 0.01 0.01 0.01 0.01 0.01 0.01 0.02 0.02 0.03 0.03 0.03 0.04 0.05 0.04 0.03 0.03 0.03 0.02 0.02 0.03 0.04 0.06 0.07 0.09 0.10 0.09 0.07 0.07 0.06 0.06 0.05 0.05 0.05 0.05 0.05 0.04 0.03
0.03 0.03 0.04 0.03 0.02 0.02 0.01 0.01 0.01 0.01 0.01 0.01 0.01 0.01 0.02 0.02 0.02 0.02 0.03 0.03 0.04 0.04 0.04 0.04 0.04 0.04 0.06 0.06 0.06 0.06 0.07 0.09 0.09 0.09 0.08 0.07 0.06 0.05 0.04 0.04 0.04 0.04 0.03 0.03
0.03 0.04 0.05 0.04 0.03 0.02 0.02 0.03 0.02 0.02 0.01 0.01 0.01 0.01 0.01 0.01 0.02 0.03 0.04 0.05 0.05 0.05 0.04 0.03 0.04 0.04 0.06 0.08 0.08 0.10 0.10 0.10 0.10 0.09 0.08 0.07 0.05 0.04 0.04 0.03 0.03 0.04 0.04 0.03
0.03 0.03 0.03 0.03 0.03 0.03 0.03 0.06 0.05 0.02 0.02 0.01 0.01 0.01 0.02 0.02 0.02 0.03 0.04 0.05 0.06 0.05 0.04 0.03 0.04 0.04 0.06 0.07 0.07 0.09 0.11 0.10 0.09 0.09 0.09 0.08 0.06 0.04 0.03 0.04 0.04 0.03 0.03 0.02
0.02 0.02 0.01 0.02 0.02 0.02 0.02 0.03 0.04 0.02 0.02 0.02 0.02 0.02 0.02 0.02 0.03 0.04 0.05 0.06 0.07 0.07 0.06 0.04 0.04 0.04 0.06 0.06 0.06 0.06 0.07 0.07 0.07 0.06 0.06 0.05 0.04 0.04 0.03 0.03 0.03 0.02 0.02 0.03
0.02 0.02 0.01 0.01 0.01 0.01 0.01 0.01 0.01 0.01 0.02 0.02 0.02 0.02 0.03 0.03 0.03 0.04 0.05 0.05 0.07 0.07 0.06 0.06 0.05 0.05 0.06 0.06 0.07 0.06 0.05 0.05 0.05 0.04 0.04 0.04 0.03 0.03 0.03 0.03 0.03 0.03 0.02 0.02
0.01 0.01 0.01 0.01 0.01 0.01 0.01 0.01 0.01 0.01 0.02 0.03 0.02 0.02 0.03 0.04 0.04 0.04 0.04 0.05 0.07 0.08 0.07 0.07 0.06 0.05 0.04 0.05 0.07 0.07 0.05 0.04 0.03 0.03 0.02 0.02 0.03 0.03 0.03 0.02 0.03 0.02 0.02 0.02
0.01 0.01 0.01 0.01 0.01 0.01 0.02 0.02 0.02 0.02 0.03 0.03 0.03 0.03 0.03 0.03 0.03 0.03 0.04 0.05 0.08 0.09 0.08 0.07 0.07 0.04 0.02 0.03 0.03 0.02 0.02 0.02 0.02 0.02 0.02 0.02 0.02 0.02 0.03 0.04 0.04 0.03 0.02 0.02
0.03 0.03 0.03 0.03 0.01 0.01 0.01 0.01 0.02 0.03 0.06 0.07 0.06 0.05 0.04 0.03 0.03 0.02 0.03 0.05 0.07 0.07 0.06 0.05 0.04 0.03 0.02 0.01 0.01 0.01 0.01 0.01 0.01 0.01 0.01 0.01 0.01 0.01 0.01 0.02 0.05 0.05 0.04 0.04
0.03 0.03 0.03 0.03 0.02 0.01 0.02 0.02 0.02 0.02 0.03 0.05 0.07 0.07 0.05 0.04 0.03 0.03 0.03 0.04 0.04 0.04 0.04 0.03 0.03 0.02 0.01 0.01 0.01 0.01 0.01 0.01 0.01 0.01 0.01 0.02 0.02 0.01 0.01 0.01 0.02 0.03 0.04 0.04
0.03 0.03 0.03 0.04 0.04 0.02 0.02 0.02 0.02 0.02 0.03 0.03 0.04 0.05 0.05 0.05 0.04 0.04 0.03 0.04 0.03 0.03 0.02 0.02 0.01 0.02 0.02 0.01 0.01 0.01 0.01 0.01 0.02 0.02 0.02 0.02 0.03 0.02 0.02 0.02 0.02 0.02 0.03 0.03
0.04 0.05 0.06 0.06 0.04 0.02 0.02 0.02 0.02 0.02 0.02 0.02 0.02 0.03 0.04 0.03 0.02 0.02 0.02 0.02 0.02 0.02 0.02 0.02 0.02 0.02 0.02 0.02 0.02 0.02 0.02 0.02 0.02 0.02 0.02 0.02 0.03 0.03 0.03 0.03 0.03 0.03 0.03 0.03
0.05 0.04 0.05 0.04 0.02 0.01 0.01 0.02 0.02 0.01 0.01 0.02 0.02 0.02 0.02 0.02 0.02 0.02 0.02 0.02 0.02 0.02 0.03 0.03 0.03 0.03 0.03 0.03 0.02 0.02 0.02 0.02 0.02 0.02 0.03 0.03 0.03 0.03 0.03 0.03 0.04 0.05 0.05 0.05
0.05 0.04 0.03 0.03 0.02 0.02 0.02 0.03 0.03 0.02 0.02 0.03 0.03 0.03 0.02 0.01 0.02 0.02 0.02 0.02 0.03 0.03 0.03 0.04 0.04 0.04 0.04 0.05 0.05 0.04 0.04 0.04 0.04 0.04 0.05 0.05 0.05 0.05 0.04 0.04 0.04 0.04 0.05 0.06
0.04 0.03 0.03 0.03 0.03 0.03 0.04 0.04 0.04 0.03 0.03 0.04 0.03 0.02 0.01 0.01 0.01 0.01 0.02 0.03 0.03 0.04 0.04 0.05 0.06 0.08 0.11 0.13 0.12 0.10 0.08 0.07 0.06 0.05 0.04 0.04 0.04 0.04 0.03 0.03 0.03 0.03 0.04 0.05
0.03 0.03 0.03 0.03 0.03 0.03 0.04 0.04 0.03 0.02 0.03 0.04 0.02 0.01 0.01 0.01 0.01 0.02 0.02 0.03 0.04 0.04 0.05 0.06 0.06 0.07 0.08 0.09 0.09 0.09 0.08 0.07 0.06 0.05 0.04 0.03 0.04 0.04 0.03 0.03 0.03 0.03 0.03 0.02
MSLP
1011.70 1011.59 1011.50 1011.44 1011.42 1011.41 1011.40 1011.34 1011.21 1011.01 1010.72 1010.37 1009.98 1009.59 1009.25 1009.00 1008.86 1008.84 1008.94 1009.15 1009.45 1009.82 1010.22 1010.66 1011.12 1011.60 1012.09 1012.58 1013.06 1013.52 1013.93 1014.27 1014.53 1014.70 1014.80 1014.83 1014.83 1014.85 1014.90 1015.02 1015.21 1015.48 1015.80 1016.14
1011.58 1011.38 1011.17 1010.99 1010.83 1010.71 1010.62 1010.54 1010.46 1010.35 1010.20 1010.00 1009.77 1009.52 1009.27 1009.06 1008.89 1008.79 1008.77 1008.85 1009.02 1009.29 1009.63 1010.06 1010.56 1011.11 1011.70 1012.31 1012.90 1013.45 1013.93 1014.31 1014.59 1014.77 1014.86 1014.88 1014.88 1014.89 1014.94 1015.07 1015.28 1015.57 1015.90 1016.26
1011.43 1011.20 1010.93 1010.67 1010.44 1010.26 1010.13 1010.06 1010.02 1009.99 1009.96 1009.90 1009.79 1009.64 1009.45 1009.24 1009.02 1008.83 1008.68 1008.61 1008.65 1008.80 1009.08 1009.48 1010.00 1010.61 1011.29 1011.99 1012.68 1013.32 1013.86 1014.29 1014.60 1014.79 1014.87 1014.89 1014.89 1014.90 1014.96 1015.10 1015.32 1015.62 1015.97 1016.34
1011.29 1011.06 1010.79 1010.51 1010.26 1010.06 1009.93 1009.88 1009.89 1009.94 1010.00 1010.04 1010.02 1009.94 1009.78 1009.55 1009.28 1008.98 1008.71 1008.50 1008.40 1008.44 1008.64 1009.01 1009.53 1010.17 1010.91 1011.69 1012.45 1013.15 1013.75 1014.23 1014.56 1014.76 1014.85 1014.88 1014.88 1014.89 1014.96 1015.10 1015.33 1015.63 1015.99 1016.37
1011.15 1010.97 1010.73 1010.48 1010.25 1010.08 1009.97 1009.95 1010.01 1010.12 1010.24 1010.35 1010.40 1010.36 1010.21 1009.97 1009.64 1009.26 1008.88 1008.56 1008.35 1008.29 1008.41 1008.73 1009.22 1009.87 1010.63 1011.45 1012.25 1013.00 1013.63 1014.14 1014.50 1014.72 1014.83 1014.87 1014.88 1014.91 1014.98 1015.13 1015.36 1015.66 1016.01 1016.38
1011.06 1010.93 1010.76 1010.56 1010.38 1010.24 1010.17 1010.18 1010.27 1010.42 1010.59 1010.74 1010.83 1010.82 1010.69 1010.44 1010.08 1009.66 1009.21 1008.82 1008.52 1008.38 1008.43 1008.68 1009.13 1009.75 1010.50 1011.31 1012.12 1012.87 1013.53 1014.05 1014.44 1014.69 1014.83 1014.90 1014.95 1015.00 1015.09 1015.24 1015.46 1015.75 1016.08 1016.44
1011.02 1010.95 1010.84 1010.70 1010.57 1010.47 1010.44 1010.48 1010.59 1010.76 1010.95 1011.13 1011.25 1011.27 1011.17 1010.93 1010.58 1010.15 1009.69 1009.26 1008.92 1008.72 1008.70 1008.89 1009.28 1009.83 1010.52 1011.28 1012.06 1012.80 1013.45 1013.99 1014.40 1014.69 1014.88 1015.00 1015.09 1015.18 1015.31 1015.47 1015.70 1015.97 1016.28 1016.60
1011.07 1011.04 1010.98 1010.89 1010.80 1010.73 1010.72 1010.77 1010.89 1011.07 1011.27 1011.47 1011.61 1011.67 1011.61 1011.42 1011.12 1010.72 1010.29 1009.86 1009.51 1009.28 1009.21 1009.33 1009.63 1010.09 1010.69 1011.37 1012.08 1012.76 1013.39 1013.93 1014.37 1014.71 1014.97 1015.16 1015.32 1015.48 1015.65 1015.85 1016.08 1016.34 1016.63 1016.92
1011.20 1011.19 1011.16 1011.10 1011.04 1010.99 1010.99 1011.04 1011.15 1011.32 1011.53 1011.73 1011.90 1012.00 1012.00 1011.88 1011.65 1011.34 1010.97 1010.59 1010.25 1010.01 1009.89 1009.94 1010.14 1010.49 1010.96 1011.53 1012.14 1012.75 1013.34 1013.87 1014.34 1014.73 1015.07 1015.35 1015.61 1015.85 1016.09 1016.34 1016.60 1016.86 1017.13 1017.38
1011.40 1011.40 1011.38 1011.34 1011.29 1011.25 1011.23 1011.27 1011.37 1011.52 1011.72 1011.93 1012.12 1012.26 1012.33 1012.30 1012.17 1011.95 1011.67 1011.36 1011.06 1010.83 1010.68 1010.65 1010.74 1010.97 1011.30 1011.73 1012.22 1012.75 1013.27 1013.79 1014.28 1014.73 1015.15 1015.54 1015.90 1016.24 1016.57 1016.88 1017.18 1017.46 1017.71 1017.94
1011.66 1011.65 1011.63 1011.59 1011.54 1011.49 1011.47 1011.49 1011.56 1011.69 1011.87 1012.07 1012.28 1012.47 1012.60 1012.66 1012.63 1012.52 1012.33 1012.11 1011.87 1011.65 1011.48 1011.38 1011.38 1011.47 1011.67 1011.96 1012.32 1012.74 1013.20 1013.69 1014.19 1014.69 1015.19 1015.68 1016.15 1016.60 1017.02 1017.41 1017.75 1018.05 1018.31 1018.51
1011.93 1011.92 1011.89 1011.85 1011.80 1011.74 1011.70 1011.69 1011.74 1011.83 1011.98 1012.18 1012.39 1012.60 1012.78 1012.91 1012.97 1012.96 1012.88 1012.74 1012.56 1012.38 1012.20 1012.06 1011.98 1011.97 1012.04 1012.20 1012.44 1012.76 1013.15 1013.60 1014.10 1014.64 1015.21 1015.78 1016.35 1016.89 1017.39 1017.85 1018.24 1018.56 1018.81 1019.00
1012.20 1012.17 1012.14 1012.09 1012.03 1011.97 1011.91 1011.88 1011.89 1011.95 1012.06 1012.22 1012.42 1012.63 1012.84 1013.02 1013.15 1013.22 1013.23 1013.18 1013.08 1012.93 1012.78 1012.62 1012.50 1012.41 1012.39 1012.45 1012.59 1012.83 1013.15 1013.57 1014.06 1014.61 1015.22 1015.85 1016.48 1017.09 1017.66 1018.16 1018.58 1018.91 1019.15 1019.32
1012.41 1012.38 1012.34 1012.29 1012.23 1012.16 1012.08 1012.03 1012.00 1012.01 1012.08 1012.19 1012.35 1012.54 1012.75 1012.95 1013.12 1013.26 1013.35 1013.37 1013.35 1013.27 1013.16 1013.04 1012.91 1012.80 1012.74 1012.74 1012.82 1012.99 1013.27 1013.64 1014.11 1014.66 1015.28 1015.93 1016.59 1017.23 1017.82 1018.33 1018.76 1019.08 1019.30 1019.43
1012.57 1012.53 1012.48 1012.43 1012.37 1012.28 1012.20 1012.11 1012.05 1012.02 1012.02 1012.08 1012.18 1012.32 1012.50 1012.69 1012.88 1013.05 1013.20 1013.31 1013.36 1013.37 1013.34 1013.28 1013.20 1013.12 1013.07 1013.06 1013.12 1013.27 1013.51 1013.85 1014.29 1014.82 1015.42 1016.06 1016.70 1017.33 1017.90 1018.40 1018.80 1019.09 1019.27 1019.35
1012.66 1012.61 1012.56 1012.51 1012.44 1012.35 1012.25 1012.14 1012.04 1011.95 1011.90 1011.88 1011.91 1011.99 1012.11 1012.26 1012.44 1012.64 1012.83 1013.00 1013.14 1013.25 1013.32 1013.36 1013.37 1013.37 1013.38 1013.42 1013.50 1013.65 1013.88 1014.20 1014.61 1015.09 1015.64 1016.24 1016.83 1017.41 1017.93 1018.37 1018.72 1018.95 1019.08 1019.11
1012.71 1012.64 1012.58 1012.52 1012.45 1012.36 1012.24 1012.12 1011.98 1011.85 1011.73 1011.64 1011.59 1011.59 1011.64 1011.74 1011.89 1012.08 1012.30 1012.53 1012.75 1012.97 1013.15 1013.31 1013.44 1013.56 1013.66 1013.77 1013.91 1014.08 1014.32 1014.62 1015.00 1015.44 1015.93 1016.45 1016.97 1017.47 1017.91 1018.27 1018.54 1018.71 1018.78 1018.75
1012.72 1012.64 1012.57 1012.50 1012.43 1012.33 1012.21 1012.07 1011.91 1011.74 1011.57 1011.41 1011.29 1011.21 1011.19 1011.23 1011.34 1011.51 1011.73 1012.00 1012.29 1012.59 1012.89 1013.17 1013.43 1013.66 1013.88 1014.08 1014.28 1014.50 1014.76 1015.05 1015.39 1015.77 1016.19 1016.63 1017.06 1017.47 1017.82 1018.10 1018.30 1018.40 1018.40 1018.32
1012.73 1012.63 1012.55 1012.48 1012.40 1012.31 1012.20 1012.05 1011.88 1011.69 1011.48 1011.28 1011.09 1010.94 1010.86 1010.84 1010.89 1011.03 1011.25 1011.53 1011.86 1012.23 1012.61 1013.00 1013.36 1013.70 1014.01 1014.29 1014.56 1014.82 1015.09 1015.37 1015.68 1016.00 1016.35 1016.70 1017.05 1017.37 1017.64 1017.85 1017.98 1018.03 1017.99 1017.89
1012.74 1012.63 1012.54 1012.46 1012.39 1012.32 1012.21 1012.09 1011.92 1011.73 1011.51 1011.27 1011.05 1010.86 1010.72 1010.64 1010.65 1010.75 1010.94 1011.21 1011.56 1011.96 1012.39 1012.83 1013.26 1013.67 1014.05 1014.39 1014.70 1014.98 1015.25 1015.51 1015.78 1016.05 1016.33 1016.61 1016.89 1017.13 1017.34 1017.50 1017.60 1017.62 1017.58 1017.48
1012.77 1012.64 1012.55 1012.48 1012.42 1012.35 1012.28 1012.17 1012.03 1011.86 1011.65 1011.42 1011.19 1010.97 1010.80 1010.69 1010.65 1010.71 1010.86 1011.11 1011.44 1011.84 1012.27 1012.73 1013.18 1013.61 1014.01 1014.37 1014.68 1014.96 1015.21 1015.44 1015.67 1015.89 1016.12 1016.35 1016.57 1016.77 1016.95 1017.09 1017.18 1017.22 1017.21 1017.15
1012.79 1012.67 1012.57 1012.50 1012.46 1012.42 1012.37 1012.30 1012.20 1012.06 1011.88 1011.68 1011.46 1011.25 1011.07 1010.94 1010.88 1010.90 1011.02 1011.23 1011.52 1011.88 1012.28 1012.71 1013.14 1013.55 1013.93 1014.26 1014.55 1014.80 1015.01 1015.21 1015.39 1015.57 1015.75 1015.95 1016.14 1016.33 1016.51 1016.67 1016.79 1016.88 1016.92 1016.94
1012.83 1012.70 1012.60 1012.54 1012.50 1012.48 1012.46 1012.43 1012.37 1012.28 1012.15 1011.98 1011.80 1011.62 1011.45 1011.33 1011.26 1011.26 1011.35 1011.52 1011.76 1012.07 1012.42 1012.79 1013.17 1013.52 1013.85 1014.13 1014.37 1014.57 1014.74 1014.89 1015.03 1015.18 1015.34 1015.52 1015.71 1015.92 1016.12 1016.32 1016.51 1016.66 1016.79 1016.89
1012.89 1012.75 1012.64 1012.58 1012.55 1012.54 1012.54 1012.53 1012.51 1012.46 1012.38 1012.27 1012.13 1011.99 1011.86 1011.76 1011.70 1011.70 1011.77 1011.91 1012.11 1012.37 1012.66 1012.97 1013.28 1013.57 1013.83 1014.05 1014.23 1014.38 1014.50 1014.62 1014.73 1014.85 1015.01 1015.19 1015.40 1015.64 1015.89 1016.15 1016.41 1016.65 1016.87 1017.06
1012.97 1012.82 1012.71 1012.63 1012.59 1012.58 1012.58 1012.59 1012.59 1012.58 1012.53 1012.47 1012.39 1012.30 1012.21 1012.15 1012.12 1012.13 1012.20 1012.33 1012.51 1012.73 1012.97 1013.23 1013.49 1013.72 1013.92 1014.09 1014.22 1014.33 1014.42 1014.50 1014.60 1014.72 1014.88 1015.08 1015.33 1015.61 1015.92 1016.25 1016.58 1016.90 1017.20 1017.47
1013.11 1012.95 1012.82 1012.73 1012.67 1012.64 1012.63 1012.63 1012.64 1012.63 1012.62 1012.59 1012.55 1012.50 1012.46 1012.44 1012.45 1012.50 1012.58 1012.72 1012.90 1013.10 1013.33 1013.56 1013.78 1013.98 1014.15 1014.28 1014.39 1014.48 1014.55 1014.63 1014.73 1014.87 1015.05 1015.28 1015.56 1015.89 1016.25 1016.64 1017.03 1017.42 1017.78 1018.12
1013.33 1013.16 1013.02 1012.90 1012.81 1012.76 1012.72 1012.70 1012.69 1012.68 1012.67 1012.66 1012.64 1012.62 1012.62 1012.64 1012.69 1012.77 1012.89 1013.05 1013.24 1013.46 1013.69 1013.92 1014.14 1014.33 1014.50 1014.63 1014.74 1014.84 1014.92 1015.02 1015.15 1015.31 1015.52 1015.79 1016.11 1016.48 1016.88 1017.31 1017.74 1018.17 1018.57 1018.93
Thickness
5782 5792 5795 5793 5794 5795 5793 5799 5797 5802 5806 5816 5822 5824 5826 5828 5829 5828 5827 5826 5825 5823 5820 5816 5812 5808 5805 5801 5796 5792 5787 5781 5776 5773 5769 5765 5760 5757 5753 5750 5748 5744 5741 5738
5766 5781 5783 5782 5791 5792 5793 5798 5800 5803 5804 5821 5824 5824 5822 5823 5823 5822 5822 5823 5823 5821 5818 5814 5810 5807 5803 5798 5794 5790 5785 5780 5776 5771 5767 5763 5759 5754 5750 5747 5744 5741 5738 5735
5755 5770 5768 5763 5783 5788 5790 5797 5798 5794 5803 5813 5812 5812 5813 5817 5819 5819 5821 5821 5820 5818 5816 5814 5810 5807 5801 5798 5794 5788 5783 5779 5774 5769 5764 5760 5758 5752 5747 5743 5740 5737 5734 5731
5751 5750 5734 5773 5795 5795 5789 5792 5798 5798 5802 5804 5806 5808 5811 5814 5815 5815 5818 5818 5818 5817 5815 5814 5811 5807 5803 5798 5792 5786 5780 5775 5771 5766 5761 5757 5753 5749 5744 5740 5736 5733 5729 5726
5741 5739 5748 5764 5778 5783 5778 5777 5790 5791 5793 5799 5804 5805 5806 5808 5811 5812 5814 5815 5816 5816 5815 5812 5808 5804 5799 5793 5788 5782 5777 5773 5768 5764 5758 5753 5748 5744 5739 5735 5732 5729 5725 5721
5732 5730 5734 5757 5773 5780 5774 5761 5781 5783 5784 5789 5793 5790 5792 5799 5803 5805 5807 5809 5810 5811 5811 5806 5803 5800 5794 5789 5784 5778 5774 5770 5765 5760 5755 5749 5745 5740 5736 5732 5728 5724 5721 5717
5724 5727 5742 5754 5764 5765 5747 5754 5770 5775 5777 5780 5778 5780 5784 5790 5792 5795 5798 5800 5802 5802 5801 5798 5796 5791 5786 5783 5778 5775 5771 5765 5760 5755 5750 5746 5741 5736 5732 5728 5723 5719 5715 5711
5719 5719 5725 5742 5749 5746 5747 5757 5761 5765 5768 5768 5770 5773 5776 5779 5781 5784 5786 5789 5790 5789 5788 5788 5786 5781 5776 5773 5772 5769 5764 5759 5753 5749 5745 5740 5734 5730 5726 5722 5717 5712 5707 5704
5713 5715 5719 5728 5733 5738 5744 5744 5748 5753 5758 5760 5760 5762 5765 5767 5769 5772 5774 5775 5777 5776 5775 5774 5774 5771 5766 5765 5763 5759 5755 5749 5745 5741 5738 5734 5729 5724 5720 5715 5712 5708 5703 5700
5695 5702 5710 5717 5723 5727 5732 5734 5739 5743 5747 5750 5750 5752 5753 5755 5757 5758 5760 5762 5763 5763 5761 5760 5761 5760 5758 5755 5753 5749 5745 5741 5737 5733 5729 5724 5721 5719 5715 5710 5706 5702 5698 5694
5681 5689 5696 5702 5707 5712 5718 5723 5727 5731 5734 5737 5739 5740 5741 5742 5744 5746 5747 5748 5750 5750 5749 5748 5749 5748 5747 5745 5742 5738 5735 5731 5728 5725 5720 5715 5711 5707 5704 5700 5698 5694 5691 5688
5672 5680 5684 5687 5695 5701 5704 5708 5713 5716 5719 5724 5726 5727 5729 5730 5732 5734 5734 5735 5735 5736 5735 5736 5736 5735 5735 5734 5732 5728 5724 5722 5720 5716 5711 5707 5702 5695 5688 5686 5682 5679 5676 5674
5663 5670 5674 5679 5684 5689 5692 5697 5701 5704 5707 5710 5714 5715 5716 5717 5719 5721 5722 5723 5723 5723 5723 5724 5724 5723 5723 5722 5720 5717 5714 5712 5710 5707 5702 5698 5694 5689 5683 5674 5669 5666 5663 5660
5652 5656 5658 5665 5669 5675 5679 5684 5689 5692 5696 5699 5701 5703 5705 5705 5707 5708 5709 5711 5712 5712 5712 5712 5712 5711 5710 5709 5707 5705 5703 5700 5698 5695 5692 5689 5686 5682 5677 5673 5668 5662 5654 5649
5640 5645 5648 5654 5658 5662 5667 5672 5675 5679 5683 5686 5690 5691 5692 5692 5693 5695 5697 5699 5700 5700 5700 5699 5698 5697 5698 5696 5694 5692 5690 5689 5687 5684 5682 5679 5675 5672 5668 5665 5662 5657 5651 5643
5629 5635 5639 5643 5647 5651 5656 5660 5663 5667 5671 5674 5677 5679 5680 5681 5682 5683 5685 5687 5686 5686 5687 5686 5685 5684 5684 5683 5681 5679 5677 5674 5673 5672 5670 5668 5665 5662 5658 5655 5651 5647 5644 5640
5617 5622 5627 5631 5636 5641 5646 5650 5654 5657 5661 5663 5665 5668 5669 5670 5670 5671 5672 5674 5674 5673 5673 5673 5672 5671 5670 5669 5668 5667 5666 5663 5659 5660 5659 5657 5654 5651 5648 5645 5642 5638 5635 5630
5611 5616 5620 5623 5628 5632 5637 5641 5644 5647 5650 5653 5655 5657 5658 5659 5659 5660 5661 5661 5660 5660 5660 5660 5660 5658 5657 5655 5654 5655 5654 5652 5650 5649 5647 5644 5642 5639 5637 5634 5631 5628 5624 5620
5604 5608 5613 5617 5621 5624 5628 5631 5635 5638 5641 5644 5646 5647 5647 5648 5648 5650 5650 5649 5648 5647 5647 5647 5644 5645 5643 5642 5641 5641 5642 5641 5638 5636 5634 5629 5629 5627 5625 5623 5620 5617 5614 5610
5597 5602 5606 5610 5614 5618 5620 5624 5626 5628 5631 5635 5636 5636 5636 5637 5638 5639 5639 5638 5639 5638 5636 5634 5633 5634 5632 5631 5629 5632 5631 5629 5626 5624 5623 5621 5619 5616 5614 5611 5608 5605 5602 5598
5590 5594 5598 5602 5606 5610 5613 5615 5617 5619 5622 5624 5625 5625 5626 5627 5628 5627 5627 5627 5626 5625 5624 5621 5623 5622 5621 5619 5617 5619 5618 5616 5614 5612 5611 5609 5607 5604 5602 5599 5596 5593 5590 5587
5584 5588 5591 5594 5597 5600 5604 5607 5609 5611 5613 5614 5615 5616 5616 5616 5616 5616 5615 5615 5613 5611 5613 5614 5612 5610 5609 5607 5609 5608 5607 5605 5603 5602 5599 5597 5595 5592 5589 5586 5584 5581 5577 5574
5578 5581 5584 5587 5590 5592 5595 5598 5600 5602 5603 5603 5604 5605 5606 5605 5606 5606 5604 5603 5603 5600 5602 5602 5598 5596 5596 5598 5599 5598 5597 5594 5592 5590 5588 5586 5583 5580 5577 5575 5572 5570 5566 5563
5573 5576 5579 5581 5584 5585 5586 5588 5591 5592 5592 5592 5593 5594 5595 5595 5594 5594 5593 5589 5589 5589 5590 5586 5585 5585 5585 5589 5588 5587 5584 5582 5580 5578 5576 5574 5571 5569 5566 5563 5560 5558 5555 5551
5569 5571 5573 5575 5576 5578 5579 5580 5581 5582 5583 5584 5584 5584 5585 5585 5584 5583 5583 5581 5579 5580 5579 5575 5574 5575 5577 5577 5575 5573 5571 5569 5567 5565 5563 5561 5559 5557 5554 5551 5548 5544 5541 5538
5563 5565 5566 5567 5569 5571 5573 5575 5576 5576 5577 5576 5576 5576 5576 5576 5575 5574 5573 5573 5571 5569 5570 5568 5566 5565 5566 5564 5562 5560 5558 5556 5555 5553 5550 5548 5545 5542 5540 5537 5534 5531 5528 5525
5559 5560 5561 5563 5564 5566 5568 5570 5570 5570 5570 5570 5569 5569 5569 5568 5567 5567 5566 5565 5564 5562 5560 5558 5557 5555 5554 5552 5550 5548 5546 5543 5541 5539 5536 5534 5532 5530 5527 5524 5521 5518 5515 5512